Regional Weather Roundup
Issued by NWS

Home | Current Version | Previous Version | Text Only | Print | Product List | Glossary Off
Versions: 1 2 3 4 5 6 7 8 9 10 11 12 13 14 15 16 17 18 19 20 21 22 23 24 25 26 27 28 29 30 31 32 33 34 35 36 37 38 39 40 41 42 43 44 45 46 47 48 49 50

000
ASUS45 KSLC 280210
RWRUT

UTAH REGIONAL WEATHER ROUNDUP
NATIONAL WEATHER SERVICE SALT LAKE CITY UT
800 PM MDT WED AUG 27 2014

UTZ001>011-023>025-280300-

NORTHERN UTAH

CITY           SKY/WX    TMP DP  RH WIND       PRES   REMARKS
HILL AFB       PTCLDY    69  50  49 CALM      30.22S
LOGAN          CLEAR     70  55  59 E3        30.19S
OGDEN          CLOUDY    71  49  45 S5        30.20S
PROVO AIRPORT  NOT AVBL
SALT LAKE CITY PTCLDY    73  45  36 CALM      30.19S
VERNAL         CLOUDY    57  54  89 W3        30.27R
WENDOVER       CLEAR     79  41  25 SE7       30.17S
HEBER CITY     CLOUDY    57  50  77 CALM      30.31R
WEST JORDAN    CLEAR     72  54  53 CALM      30.22S

$$

UTZ012>022-026-027-280300-

SOUTHERN UTAH

CITY           SKY/WX    TMP DP  RH WIND       PRES   REMARKS
BRYCE CANYON   CLEAR     59  39  47 NW9       30.38R
CEDAR CITY     CLEAR     70  41  34 N7        30.24R
MILFORD        CLEAR     73  44  35 NE9       30.22R
MOAB/CYNLANDS  MOCLDY    72  44  36 N9        30.18R
PRICE          CLOUDY    63  45  51 NW7       30.28R
ST GEORGE      CLOUDY    88  46  23 W3        30.06R

$$

REGIONAL REPORTS     COLORADO/ARIZONA

CITY           SKY/WX    TMP DP  RH WIND       PRES   REMARKS
CRAIG, CO      LGT RAIN  53  51  93 SW10      30.28R
GRAND JUNCTION LGT RAIN  59  54  83 N9        30.24R
RIFLE          LGT RAIN  59  54  83 E3        30.26R
MONTROSE       CLOUDY    61  46  57 SE13      30.30R
CORTEZ         NOT AVBL
PAGE, AZ       CLEAR     79  49  34 CALM      30.14S
GRAND CANYON   PTCLDY    68  39  34 N3        30.32R
KINGMAN        MOCLDY    86  40  19 W10       30.09R
FLAGSTAFF      CLOUDY    60  48  64 NE5       30.37R

$$

REGIONAL REPORTS    NEVADA/IDAHO/WYOMING

CITY           SKY/WX    TMP DP  RH WIND       PRES   REMARKS
LAS VEGAS, NV  CLEAR     94  32  11 VRB3      29.95S
ELY            CLEAR     72  37  28 NE5       30.28S
ELKO           CLEAR     75  37  25 SW8       30.18S
POCATELLO, ID  PTCLDY    73  48  41 SW9       30.16S
BURLEY         CLEAR     72  50  45 W6        30.13S
EVANSTON, WY   RAIN      53  49  86 SE8       30.36R
ROCK SPRINGS   CLOUDY    51  48  89 SW13      30.29S

$$



USA.gov is the U.S. government's official web portal to all federal, state and local government web resources and services.